When you browse on this site, cookies collect data to enhance your experience and personalize the content and advertising you see.
Visit our Privacy Policy to learn more. By continuing to use the site, you agree to this use of cookies and data.

Meteo orario Dymytrov

Oggi, 2 Luglio, Giovedi

Tempo Temperatura Precipitazioni Vento Pressione Umidità
00:00 +20°C° 0.1 mm 3 m/s 742 mm Hg 87%
01:00 +20°C° 0.1 mm 3 m/s 742 mm Hg 87%
02:00 +19°C° 0 mm 2 m/s 742 mm Hg 87%
03:00 +19°C° 0 mm 2 m/s 742 mm Hg 86%
04:00 +19°C° 0 mm 2 m/s 742 mm Hg 85%
05:00 +20°C° 0 mm 2 m/s 743 mm Hg 84%
06:00 +21°C° 0 mm 3 m/s 743 mm Hg 77%
07:00 +24°C° 0 mm 3 m/s 743 mm Hg 71%
08:00 +26°C° 0 mm 3 m/s 743 mm Hg 65%
09:00 +27°C° 0 mm 3 m/s 743 mm Hg 61%
10:00 +28°C° 0 mm 3 m/s 743 mm Hg 57%
11:00 +29°C° 0 mm 2 m/s 743 mm Hg 53%
12:00 +29°C° 0 mm 2 m/s 743 mm Hg 52%
13:00 +29°C° 0 mm 2 m/s 743 mm Hg 50%
14:00 +30°C° 0 mm 2 m/s 743 mm Hg 49%
15:00 +29°C° 0 mm 2 m/s 743 mm Hg 51%
16:00 +29°C° 0 mm 2 m/s 743 mm Hg 52%
17:00 +29°C° 0 mm 2 m/s 743 mm Hg 53%
18:00 +27°C° 0 mm 2 m/s 743 mm Hg 57%
19:00 +26°C° 0 mm 2 m/s 743 mm Hg 60%
20:00 +25°C° 0 mm 2 m/s 743 mm Hg 63%
21:00 +24°C° 0 mm 2 m/s 743 mm Hg 65%
22:00 +24°C° 0 mm 2 m/s 743 mm Hg 66%
23:00 +22°C° 0 mm 3 m/s 743 mm Hg 67%

Domani, 3 Luglio, Venerdi

Tempo Temperatura Precipitazioni Vento Pressione Umidità
00:00 +22°C° 0 mm 3 m/s 743 mm Hg 68%
01:00 +21°C° 0 mm 3 m/s 743 mm Hg 70%
02:00 +20°C° 0 mm 3 m/s 743 mm Hg 71%
03:00 +21°C° 0 mm 3 m/s 743 mm Hg 73%
04:00 +21°C° 0 mm 3 m/s 743 mm Hg 76%
05:00 +21°C° 0 mm 2 m/s 742 mm Hg 78%
06:00 +24°C° 0 mm 3 m/s 743 mm Hg 73%
07:00 +26°C° 0 mm 3 m/s 743 mm Hg 68%
08:00 +28°C° 0 mm 3 m/s 743 mm Hg 63%
09:00 +29°C° 0.5 mm 2 m/s 743 mm Hg 58%
10:00 +30°C° 0.5 mm 2 m/s 743 mm Hg 53%
11:00 +32°C° 0.5 mm 2 m/s 743 mm Hg 48%
12:00 +32°C° 0.1 mm 1 m/s 743 mm Hg 48%
13:00 +32°C° 0.1 mm 1 m/s 743 mm Hg 47%
14:00 +32°C° 0.1 mm 1 m/s 742 mm Hg 46%
15:00 +31°C° 0.3 mm 2 m/s 742 mm Hg 52%
16:00 +29°C° 0.3 mm 2 m/s 742 mm Hg 58%
17:00 +28°C° 0.3 mm 3 m/s 742 mm Hg 64%
18:00 +27°C° 0.3 mm 2 m/s 742 mm Hg 64%
19:00 +26°C° 0.3 mm 2 m/s 742 mm Hg 65%
20:00 +25°C° 0.3 mm 2 m/s 742 mm Hg 66%
21:00 +24°C° 0 mm 2 m/s 742 mm Hg 62%
22:00 +24°C° 0 mm 2 m/s 742 mm Hg 58%
23:00 +23°C° 0 mm 1 m/s 743 mm Hg 55%

Dopodomani, 4 Luglio, Sabato

Tempo Temperatura Precipitazioni Vento Pressione Umidità
00:00 +22°C° 0 mm 1 m/s 742 mm Hg 54%
01:00 +22°C° 0 mm 1 m/s 742 mm Hg 54%
02:00 +21°C° 0 mm 1 m/s 742 mm Hg 54%
03:00 +21°C° 0 mm 2 m/s 742 mm Hg 55%
04:00 +21°C° 0 mm 2 m/s 742 mm Hg 57%
05:00 +21°C° 0 mm 2 m/s 742 mm Hg 58%
06:00 +24°C° 0 mm 2 m/s 742 mm Hg 53%
07:00 +26°C° 0 mm 2 m/s 742 mm Hg 49%
08:00 +28°C° 0 mm 3 m/s 743 mm Hg 44%
09:00 +30°C° 0 mm 3 m/s 743 mm Hg 40%
10:00 +31°C° 0 mm 3 m/s 743 mm Hg 36%
11:00 +34°C° 0 mm 3 m/s 743 mm Hg 32%
12:00 +34°C° 0 mm 3 m/s 742 mm Hg 32%
13:00 +35°C° 0 mm 3 m/s 742 mm Hg 32%
14:00 +35°C° 0 mm 3 m/s 742 mm Hg 32%
15:00 +35°C° 0 mm 3 m/s 742 mm Hg 36%
16:00 +35°C° 0 mm 3 m/s 741 mm Hg 40%
17:00 +34°C° 0 mm 2 m/s 741 mm Hg 44%
18:00 +31°C° 0 mm 2 m/s 741 mm Hg 47%
19:00 +29°C° 0 mm 2 m/s 741 mm Hg 50%
20:00 +27°C° 0 mm 2 m/s 741 mm Hg 53%
21:00 +27°C° 0 mm 2 m/s 741 mm Hg 54%
22:00 +26°C° 0 mm 2 m/s 741 mm Hg 55%
23:00 +25°C° 0 mm 3 m/s 741 mm Hg 56%

5 Luglio, Domenica

Tempo Temperatura Precipitazioni Vento Pressione Umidità
00:00 +25°C° 0 mm 3 m/s 741 mm Hg 56%
01:00 +24°C° 0 mm 3 m/s 741 mm Hg 57%
02:00 +24°C° 0 mm 3 m/s 740 mm Hg 57%
03:00 +24°C° 0 mm 3 m/s 740 mm Hg 60%
04:00 +22°C° 0 mm 3 m/s 740 mm Hg 62%
05:00 +22°C° 0 mm 3 m/s 740 mm Hg 65%
06:00 +25°C° 0 mm 3 m/s 740 mm Hg 58%
07:00 +27°C° 0 mm 3 m/s 741 mm Hg 51%
08:00 +29°C° 0 mm 3 m/s 741 mm Hg 44%
09:00 +31°C° 0 mm 3 m/s 741 mm Hg 40%
10:00 +33°C° 0 mm 3 m/s 741 mm Hg 37%
11:00 +35°C° 0 mm 4 m/s 741 mm Hg 33%
12:00 +35°C° 0 mm 3 m/s 740 mm Hg 31%
13:00 +36°C° 0 mm 3 m/s 740 mm Hg 30%
14:00 +36°C° 0 mm 3 m/s 740 mm Hg 28%
15:00 +36°C° 0 mm 3 m/s 740 mm Hg 31%
16:00 +35°C° 0 mm 2 m/s 740 mm Hg 33%
17:00 +35°C° 0 mm 2 m/s 740 mm Hg 36%
18:00 +31°C° 0 mm 2 m/s 740 mm Hg 39%
19:00 +29°C° 0 mm 2 m/s 740 mm Hg 42%
20:00 +27°C° 0 mm 1 m/s 740 mm Hg 45%
21:00 +26°C° 0 mm 1 m/s 740 mm Hg 44%
22:00 +25°C° 0 mm 1 m/s 740 mm Hg 44%
23:00 +25°C° 0 mm 1 m/s 740 mm Hg 44%

6 Luglio, Lunedi

Tempo Temperatura Precipitazioni Vento Pressione Umidità
00:00 +24°C° 0 mm 1 m/s 740 mm Hg 44%
01:00 +24°C° 0 mm 1 m/s 740 mm Hg 44%
02:00 +24°C° 0 mm 1 m/s 740 mm Hg 44%
03:00 +24°C° 0 mm 2 m/s 740 mm Hg 47%
04:00 +24°C° 0 mm 2 m/s 740 mm Hg 50%
05:00 +24°C° 0 mm 2 m/s 740 mm Hg 53%
06:00 +26°C° 0 mm 2 m/s 740 mm Hg 49%
07:00 +28°C° 0 mm 3 m/s 740 mm Hg 45%
08:00 +30°C° 0 mm 3 m/s 740 mm Hg 42%
09:00 +31°C° 0 mm 3 m/s 740 mm Hg 38%
10:00 +34°C° 0 mm 4 m/s 740 mm Hg 34%
11:00 +35°C° 0 mm 4 m/s 740 mm Hg 30%
12:00 +36°C° 0 mm 4 m/s 740 mm Hg 28%
13:00 +36°C° 0 mm 3 m/s 740 mm Hg 26%
14:00 +37°C° 0 mm 3 m/s 739 mm Hg 24%
15:00 +37°C° 0 mm 3 m/s 739 mm Hg 28%
16:00 +36°C° 0 mm 3 m/s 739 mm Hg 31%
17:00 +36°C° 0 mm 3 m/s 739 mm Hg 35%
18:00 +33°C° 0 mm 3 m/s 739 mm Hg 37%
19:00 +30°C° 0 mm 3 m/s 739 mm Hg 40%
20:00 +28°C° 0 mm 3 m/s 739 mm Hg 42%
21:00 +27°C° 0 mm 3 m/s 739 mm Hg 44%
22:00 +26°C° 0 mm 3 m/s 739 mm Hg 45%
23:00 +25°C° 0 mm 3 m/s 739 mm Hg 46%

7 Luglio, Martedi

Tempo Temperatura Precipitazioni Vento Pressione Umidità
00:00 +25°C° 0 mm 3 m/s 739 mm Hg 48%
01:00 +24°C° 0 mm 3 m/s 739 mm Hg 49%
02:00 +24°C° 0 mm 3 m/s 738 mm Hg 50%
03:00 +24°C° 0 mm 3 m/s 738 mm Hg 53%
04:00 +24°C° 0 mm 3 m/s 738 mm Hg 56%
05:00 +22°C° 0 mm 4 m/s 738 mm Hg 59%
06:00 +26°C° 0 mm 4 m/s 738 mm Hg 54%
07:00 +28°C° 0 mm 4 m/s 738 mm Hg 48%
08:00 +30°C° 0 mm 5 m/s 738 mm Hg 42%
09:00 +32°C° 0 mm 4 m/s 738 mm Hg 41%
10:00 +33°C° 0 mm 4 m/s 738 mm Hg 39%
11:00 +34°C° 0 mm 4 m/s 738 mm Hg 37%
12:00 +36°C° 0 mm 4 m/s 737 mm Hg 35%
13:00 +37°C° 0 mm 4 m/s 737 mm Hg 32%
14:00 +38°C° 0 mm 4 m/s 737 mm Hg 29%
15:00 +38°C° 0 mm 4 m/s 737 mm Hg 32%
16:00 +37°C° 0 mm 3 m/s 737 mm Hg 34%
17:00 +37°C° 0 mm 3 m/s 736 mm Hg 37%
18:00 +35°C° 0 mm 2 m/s 736 mm Hg 38%
19:00 +32°C° 0 mm 2 m/s 736 mm Hg 40%
20:00 +29°C° 0 mm 2 m/s 736 mm Hg 42%
21:00 +29°C° 0 mm 2 m/s 736 mm Hg 43%
22:00 +28°C° 0 mm 2 m/s 736 mm Hg 44%
23:00 +27°C° 0 mm 3 m/s 736 mm Hg 44%
Mostrare altro